CW0001 Weather Reports


time (UTC)temp
F
wind
direction
speed
knots
gust
knots
rain 1hr
in
rain 24hr
in
rain mn
in
humidity
%
barometer
mb
20260504100127 45 0 0.0 0.0 0.00 0.00 0.00 72 1010.0
20260504090128 46 163 0.9 0.9 0.00 0.00 0.00 71 1010.0
20260504081627 48 0 0.0 0.0 0.00 0.00 0.00 69 1010.0
20260504081127 49 0 0.0 0.0 0.00 0.00 0.00 69 1010.0
20260504080627 49 0 0.0 0.0 0.00 0.00 0.00 69 1010.0
20260504080128 49 254 0.0 0.0 0.00 0.00 0.00 69 1010.0
20260504070127 51 269 0.9 0.9 0.00 0.00 0.00 62 1010.0
20260504060127 55 217 0.0 0.9 0.00 0.00 0.00 61 1009.0
20260504050627 60 146 1.7 3.5 0.00 0.00 0.00 48 1009.0
20260504050127 60 144 1.7 2.6 0.00 0.00 0.00 50 1009.0
20260504045627 60 151 1.7 2.6 0.00 0.00 0.00 49 1009.0
20260504045128 60 167 1.7 1.7 0.00 0.00 0.00 45 1009.0
20260504044627 61 145 2.6 3.5 0.00 0.00 0.00 49 1009.0
20260504044127 61 149 0.9 1.7 0.00 0.00 0.00 50 1009.0
20260504043629 62 137 0.9 3.5 0.00 0.00 0.00 48 1009.0
20260504043128 62 125 0.0 0.9 0.00 0.00 0.00 46 1009.0
20260504042627 63 184 1.7 1.7 0.00 0.00 0.00 43 1009.0
20260504042128 62 131 1.7 1.7 0.00 0.00 0.00 51 1009.0
20260504041627 64 140 0.9 1.7 0.00 0.00 0.00 49 1009.0
20260504041127 65 0 0.0 0.0 0.00 0.00 0.00 45 1009.0
20260504040627 65 165 0.0 1.7 0.00 0.00 0.00 44 1009.0
20260504040127 66 175 0.0 1.7 0.00 0.00 0.00 45 1009.0
20260504035627 67 191 0.9 1.7 0.00 0.00 0.00 41 1008.0
20260504035127 68 185 0.9 2.6 0.00 0.00 0.00 40 1008.0
20260504034627 68 167 1.7 2.6 0.00 0.00 0.00 39 1008.0
20260504034128 69 170 1.7 3.5 0.00 0.00 0.00 40 1008.0
20260504033627 70 150 0.9 2.6 0.00 0.00 0.00 37 1008.0
20260504033127 71 163 1.7 2.6 0.00 0.00 0.00 37 1008.0
20260504032627 72 178 0.9 0.9 0.00 0.00 0.00 33 1008.0
20260504032127 72 203 1.7 2.6 0.00 0.00 0.00 33 1008.0
20260504031627 73 307 0.9 1.7 0.00 0.00 0.00 33 1008.0
20260504031130 73 286 0.0 0.9 0.00 0.00 0.00 33 1008.0
20260504030627 74 273 0.9 1.7 0.00 0.00 0.00 32 1008.0
20260504030127 75 308 2.6 3.5 0.00 0.00 0.00 31 1008.0
20260504025627 77 311 1.7 3.5 0.00 0.00 0.00 33 1008.0
20260504025127 79 303 1.7 4.3 0.00 0.00 0.00 28 1008.0
20260504024627 79 265 1.7 1.7 0.00 0.00 0.00 26 1008.0
20260504024127 80 298 1.7 4.3 0.00 0.00 0.00 26 1008.0
20260504023631 80 296 0.9 1.7 0.00 0.00 0.00 27 1008.0
20260504023127 81 295 0.9 2.6 0.00 0.00 0.00 25 1008.0
20260504022627 81 264 1.7 3.5 0.00 0.00 0.00 25 1008.0
20260504022127 81 300 3.5 5.2 0.00 0.00 0.00 24 1008.0
20260504021627 81 301 1.7 2.6 0.00 0.00 0.00 25 1008.0
20260504021127 82 283 2.6 4.3 0.00 0.00 0.00 25 1008.0
20260504020627 82 225 1.7 3.5 0.00 0.00 0.00 24 1008.0
20260504020127 82 256 2.6 4.3 0.00 0.00 0.00 25 1008.0
20260504015627 82 262 3.5 6.1 0.00 0.00 0.00 23 1008.0
20260504015128 83 313 1.7 3.5 0.00 0.00 0.00 24 1008.0
20260504014627 83 256 4.3 6.1 0.00 0.00 0.00 24 1008.0
20260504014127 83 286 2.6 5.2 0.00 0.00 0.00 23 1008.0
20260504013628 83 268 4.3 7.8 0.00 0.00 0.00 23 1008.0
20260504013127 84 330 1.7 3.5 0.00 0.00 0.00 23 1008.0
20260504012627 84 289 1.7 2.6 0.00 0.00 0.00 22 1008.0
20260504012130 84 244 0.0 0.0 0.00 0.00 0.00 24 1008.0
20260504011627 83 264 4.3 6.1 0.00 0.00 0.00 23 1008.0
20260504011127 84 267 3.5 6.1 0.00 0.00 0.00 25 1008.0
20260504010627 84 253 1.7 3.5 0.00 0.00 0.00 24 1008.0
20260504010127 84 272 5.2 9.6 0.00 0.00 0.00 24 1008.0
20260504005627 83 287 1.7 3.5 0.00 0.00 0.00 24 1008.0
20260504005128 83 264 3.5 5.2 0.00 0.00 0.00 25 1008.0
20260504004627 83 264 2.6 3.5 0.00 0.00 0.00 25 1008.0
20260504004127 83 253 3.5 7.8 0.00 0.00 0.00 24 1008.0
20260504003627 84 280 4.3 6.1 0.00 0.00 0.00 26 1008.0
20260504003127 84 265 2.6 3.5 0.00 0.00 0.00 26 1008.0
20260504002627 84 257 1.7 3.5 0.00 0.00 0.00 26 1008.0
20260504002127 84 281 2.6 3.5 0.00 0.00 0.00 27 1008.0
20260504001627 84 237 2.6 4.3 0.00 0.00 0.00 26 1008.0
20260504001127 84 227 2.6 5.2 0.00 0.00 0.00 28 1009.0
20260504000627 83 309 2.6 4.3 0.00 0.00 0.00 25 1009.0
20260504000127 83 274 3.5 5.2 0.00 0.00 0.00 26 1009.0
20260503235627 83 262 1.7 3.5 0.00 0.00 0.00 28 1009.0
20260503235127 83 278 4.3 6.1 0.00 0.00 0.00 28 1009.0
20260503234627 83 278 4.3 7.0 0.00 0.00 0.00 26 1009.0
20260503234128 83 264 4.3 7.0 0.00 0.00 0.00 29 1009.0
20260503233627 83 268 2.6 5.2 0.00 0.00 0.00 30 1009.0
20260503233127 83 243 1.7 4.3 0.00 0.00 0.00 30 1009.0
20260503232627 83 261 3.5 5.2 0.00 0.00 0.00 30 1009.0
20260503232127 83 241 2.6 5.2 0.00 0.00 0.00 32 1009.0
20260503231628 82 252 2.6 5.2 0.00 0.00 0.00 31 1009.0
20260503231127 83 264 1.7 3.5 0.00 0.00 0.00 31 1009.0
20260503230627 83 253 1.7 3.5 0.00 0.00 0.00 30 1009.0
20260503230128 83 248 2.6 4.3 0.00 0.00 0.00 31 1009.0
20260503225627 83 258 2.6 5.2 0.00 0.00 0.00 31 1009.0
20260503225127 82 265 2.6 4.3 0.00 0.00 0.00 32 1009.0
20260503224627 82 274 2.6 4.3 0.00 0.00 0.00 32 1009.0
20260503224127 82 269 2.6 5.2 0.00 0.00 0.00 31 1009.0
20260503223627 83 259 2.6 5.2 0.00 0.00 0.00 31 1010.0
20260503223127 83 259 2.6 6.1 0.00 0.00 0.00 32 1010.0
20260503222627 83 269 3.5 7.0 0.00 0.00 0.00 32 1010.0
20260503222127 82 213 2.6 4.3 0.00 0.00 0.00 31 1010.0
20260503221627 82 279 3.5 6.1 0.00 0.00 0.00 31 1010.0
20260503221127 82 279 3.5 5.2 0.00 0.00 0.00 33 1010.0
20260503220627 82 241 3.5 5.2 0.00 0.00 0.00 33 1010.0
20260503220127 82 270 4.3 7.0 0.00 0.00 0.00 33 1010.0
20260503215627 82 272 4.3 6.1 0.00 0.00 0.00 32 1010.0
20260503215128 82 221 3.5 7.0 0.00 0.00 0.00 32 1010.0
20260503214627 82 262 5.2 7.8 0.00 0.00 0.00 32 1010.0
20260503214127 82 251 2.6 5.2 0.00 0.00 0.00 32 1010.0
20260503213627 81 278 1.7 3.5 0.00 0.00 0.00 34 1010.0
20260503213127 81 269 4.3 7.8 0.00 0.00 0.00 33 1010.0
20260503212627 81 272 5.2 7.8 0.00 0.00 0.00 33 1010.0
20260503212127 81 271 5.2 7.8 0.00 0.00 0.00 33 1010.0
20260503211627 81 270 6.1 8.7 0.00 0.00 0.00 32 1010.0
20260503211127 81 243 3.5 7.8 0.00 0.00 0.00 33 1011.0
20260503210627 81 263 5.2 9.6 0.00 0.00 0.00 33 1011.0
20260503210127 81 278 5.2 8.7 0.00 0.00 0.00 33 1011.0
20260503205627 81 242 2.6 5.2 0.00 0.00 0.00 33 1011.0
20260503205127 80 263 3.5 6.1 0.00 0.00 0.00 33 1011.0
20260503204627 80 227 1.7 4.3 0.00 0.00 0.00 33 1011.0
20260503204129 79 279 6.1 7.8 0.00 0.00 0.00 34 1011.0
20260503203627 79 273 4.3 10.4 0.00 0.00 0.00 33 1011.0
20260503203127 79 250 2.6 5.2 0.00 0.00 0.00 34 1011.0
20260503202627 79 277 5.2 7.8 0.00 0.00 0.00 33 1011.0
20260503202128 78 283 5.2 7.8 0.00 0.00 0.00 34 1011.0
20260503201627 78 276 4.3 7.8 0.00 0.00 0.00 33 1011.0
20260503201128 78 277 4.3 6.1 0.00 0.00 0.00 34 1011.0
20260503200627 78 283 4.3 7.0 0.00 0.00 0.00 34 1012.0
20260503200128 77 275 6.1 7.8 0.00 0.00 0.00 33 1012.0
20260503195627 77 284 3.5 7.0 0.00 0.00 0.00 34 1012.0
20260503195127 77 258 5.2 7.0 0.00 0.00 0.00 33 1012.0
20260503194627 77 265 4.3 7.0 0.00 0.00 0.00 34 1012.0
20260503194128 76 247 3.5 4.3 0.00 0.00 0.00 36 1012.0
20260503193627 76 269 5.2 7.8 0.00 0.00 0.00 35 1012.0
20260503193127 76 268 5.2 7.0 0.00 0.00 0.00 35 1012.0
20260503192627 76 258 4.3 7.0 0.00 0.00 0.00 35 1012.0
20260503192128 76 272 4.3 7.8 0.00 0.00 0.00 35 1012.0
20260503191627 75 266 5.2 7.0 0.00 0.00 0.00 34 1012.0
20260503190652 75 253 5.2 7.8 0.00 0.00 0.00 34 1012.0
20260503190127 74 257 3.5 5.2 0.00 0.00 0.00 36 1012.0
20260503185627 74 274 5.2 7.8 0.00 0.00 0.00 35 1013.0
20260503185127 73 270 6.1 8.7 0.00 0.00 0.00 35 1013.0
20260503184627 73 267 4.3 7.0 0.00 0.00 0.00 36 1013.0
20260503184127 72 267 4.3 7.8 0.00 0.00 0.00 36 1013.0
20260503183627 72 265 5.2 7.8 0.00 0.00 0.00 37 1013.0
20260503183127 72 254 4.3 7.8 0.00 0.00 0.00 37 1013.0
20260503182627 71 266 4.3 7.8 0.00 0.00 0.00 38 1013.0
20260503182127 71 264 4.3 7.0 0.00 0.00 0.00 38 1013.0
20260503181627 70 263 4.3 7.0 0.00 0.00 0.00 38 1013.0
20260503181128 70 283 6.1 8.7 0.00 0.00 0.00 38 1013.0
20260503180628 70 262 3.5 5.2 0.00 0.00 0.00 39 1013.0
20260503180128 69 267 3.5 5.2 0.00 0.00 0.00 39 1013.0
20260503175627 69 277 5.2 7.8 0.00 0.00 0.00 39 1013.0
20260503175127 68 269 3.5 6.1 0.00 0.00 0.00 40 1014.0
20260503174627 68 255 2.6 3.5 0.00 0.00 0.00 42 1014.0
20260503174127 67 286 5.2 7.0 0.00 0.00 0.00 41 1014.0
20260503173627 66 265 4.3 6.1 0.00 0.00 0.00 41 1014.0
20260503173127 66 257 4.3 7.8 0.00 0.00 0.00 41 1014.0
20260503172629 66 253 2.6 5.2 0.00 0.00 0.00 42 1014.0
20260503172127 65 278 4.3 7.8 0.00 0.00 0.00 43 1014.0
20260503171627 65 271 2.6 5.2 0.00 0.00 0.00 44 1014.0
20260503171127 65 272 4.3 6.1 0.00 0.00 0.00 43 1014.0
20260503170627 65 270 4.3 7.0 0.00 0.00 0.00 43 1014.0
20260503170127 65 272 3.5 5.2 0.00 0.00 0.00 42 1014.0
20260503160127 59 285 2.6 5.2 0.00 0.00 0.00 50 1015.0
20260503150627 55 280 1.7 3.5 0.00 0.00 0.00 57 1016.0
20260503150127 55 235 1.7 2.6 0.00 0.00 0.00 58 1016.0
20260503140128 44 0 0.0 0.0 0.00 0.00 0.00 76 1016.0
20260503131127 40 123 1.7 1.7 0.00 0.00 0.00 80 1016.0
20260503130627 39 113 0.9 0.9 0.00 0.00 0.00 80 1016.0
20260503130127 39 124 1.7 2.6 0.00 0.00 0.00 80 1015.0
20260503120127 41 0 0.0 0.0 0.00 0.00 0.00 78 1015.0
20260503110627 43 191 0.9 0.9 0.00 0.00 0.00 77 1015.0
20260503110127 43 0 0.0 0.0 0.00 0.00 0.00 79 1015.0